Details for BMI Regional at EGNT




Go Back


Latest METAR
Local Time

EGNT 150450Z 24005KT 190V270 9999 FEW015 18/14 Q1010
15/08/2018, 06:20:01

Description
Results
BMI Regional Logo
Number of Pilots based at EGNT
1 Pilots Based here
Number of BMI Regional Flights Departed from EGNT
0 Flights Departed
Number of BMI Regional Flights Arrived at EGNT
0 Flights Arrived
Number of BMI Regional Schedules Departing from EGNT
3 Schedules
Number of BMI Regional Schedules Arriving at EGNT
3 Schedules
Number of BMI Regional Schedules Departing from EGNT availible today
2 Schedules Today
Number of BMI Regional Schedules Arriving at EGNT availible today
2 Schedules Today
Average Landing Rate at EGNT
-261 fpm
BMI Regional Average Landing Rate at EGNT
0 fpm
Total Fuel Purchased at EGNT by BMI Regional
0.00 kgs / 0.00 lbs

Pilots Based at EGNT


Pilot ID
Pilot Name
Pilot Rank
No. of Flights
No. of Flying Hours
Michael Gow
121
369.02
Content